Weather History for Forrest, WE

Change the Weather History Date:

Sunday, February 17, 2013

  Actual Average Record
Temperature  
Mean Temperature 90 °F -  
Max Temperature 110 °F - - ()
Min Temperature 69 °F - - ()
Cooling Degree Days 24    
Growing Degree Days 40 (Base 50)    
Moisture  
Dew Point 41 °F    
Average Humidity 18    
Maximum Humidity 57    
Minimum Humidity 4    
Precipitation  
Precipitation 0.00 in - - ()
Sea Level Pressure  
Sea Level Pressure 29.72 in    
Wind  
Wind Speed 14 mph ()    
Max Wind Speed 26 mph    
Max Gust Speed 39 mph    
T = Trace of Precipitation, MM = Missing Value Source: Averaged Metar Reports

Daily Weather History Graph

Daily Weather History Graph

Search for Another Location

Airport:

Trip Planner

Search our weather history database for the weather conditions in past years. The results will help you decide how hot, cold, wet, or windy it might be!

Date:

Astronomy

Feb. 17, 2013 Rise Set
Actual Time 5:08 AM AWST 6:14 PM AWST
Civil Twilight 4:43 AM AWST 6:39 PM AWST
Nautical Twilight 4:13 AM AWST 7:09 PM AWST
Astronomical Twilight 3:42 AM AWST 7:39 PM AWST
Moon 11:37 AM AWST (2/17) 10:25 PM AWST (2/17)
Length of Visible Light 13h 56m
Length of Day
13h 06m
Waxing Crescent, 43% of the Moon is Illuminated
Feb 17
Waxing Crescent
Feb 18
First Quarter
Feb 26
Full
Mar 5
Last Quarter
Mar 12
New

Hourly Weather History & Observations

Time (AWST) Temp. Heat Index Dew Point Humidity Pressure Visibility Wind Dir Wind Speed Gust Speed Precip Events Conditions
12:00 AM 81 °F - 49 °F 23% 29.81 in - East 16.1 mph - -  
12:00 AM 80.6 °F - 50.0 °F 34% 29.80 in - East 16.1 mph - N/A   Unknown
1:00 AM 82.4 °F - 48.2 °F 30% 29.80 in - East 18.4 mph - N/A   Unknown
2:00 AM 79 °F - 49 °F 25% 29.78 in - East 12.7 mph - -  
2:00 AM 78.8 °F - 50.0 °F 36% 29.80 in - East 12.7 mph - N/A   Unknown
3:00 AM 75 °F - 48 °F 28% 29.79 in - East 9.2 mph - -  
3:00 AM 75.2 °F - 48.2 °F 38% 29.80 in - East 9.2 mph - N/A   Unknown
4:00 AM 71.6 °F - 48.2 °F 43% 29.80 in - ENE 8.1 mph - N/A   Unknown
5:00 AM 70 °F - 47 °F 33% 29.80 in - ENE 6.9 mph - -  
5:00 AM 69.8 °F - 48.2 °F 46% 29.80 in - ENE 6.9 mph - N/A   Unknown
6:00 AM 76 °F - 48 °F 26% 29.81 in - NE 8.1 mph - -  
6:00 AM 77.0 °F - 48.2 °F 36% 29.83 in - NE 8.1 mph - N/A   Unknown
6:42 AM 86.0 °F - 46.4 °F 25% 29.83 in - NNE 15.0 mph - N/A   Unknown
7:00 AM 87.8 °F - 46.4 °F 24% 29.83 in - NNE 19.6 mph - N/A   Unknown
8:00 AM 95 °F - 47 °F 11% 29.80 in - North 26.5 mph - -  
8:00 AM 95.0 °F - 46.4 °F 19% 29.80 in - North 26.5 mph - N/A   Unknown
9:00 AM 100 °F - 44 °F 8% 29.79 in - North 26.5 mph - -  
9:00 AM 100.4 °F - 44.6 °F 15% 29.80 in - North 26.5 mph - N/A   Unknown
10:00 AM 102.2 °F - 41.0 °F 12% 29.77 in - North 21.9 mph - N/A   Unknown
10:02 AM 104.0 °F - 41.0 °F 12% 29.77 in - North 20.7 mph 33.4 mph N/A   Unknown
11:00 AM 103 °F - 39 °F 5% 29.74 in - North 16.1 mph - -  
11:00 AM 104.0 °F - 39.2 °F 11% 29.74 in - North 16.1 mph 27.6 mph N/A   Unknown
11:06 AM 105.8 °F - 37.4 °F 10% 29.74 in - North 17.3 mph 29.9 mph N/A   Unknown
12:00 PM 106 °F - 36 °F 4% 29.70 in - NW 16.1 mph - -  
12:00 PM 105.8 °F - 35.6 °F 9% 29.71 in - NW 16.1 mph - N/A   Unknown
12:21 PM 107.6 °F - 35.6 °F 8% 29.68 in - North 17.3 mph 28.8 mph N/A   Unknown
1:00 PM 107.6 °F - 33.8 °F 8% 29.68 in - North 17.3 mph - N/A   Unknown
2:00 PM 109 °F - 35 °F 4% 29.63 in - NNW 13.8 mph - -  
2:00 PM 109.4 °F - 35.6 °F 8% 29.65 in - NNW 13.8 mph - N/A   Unknown
3:00 PM 108 °F - 34 °F 4% 29.62 in - NNW 11.5 mph - -  
3:00 PM 107.6 °F - 33.8 °F 8% 29.62 in - NNW 11.5 mph - N/A   Unknown
4:00 PM 107.6 °F - 33.8 °F 8% 29.62 in - NW 6.9 mph - N/A   Unknown
5:00 PM 107 °F - 33 °F 4% 29.59 in - NNE 9.2 mph - -  
5:00 PM 107.6 °F - 33.8 °F 8% 29.59 in - NNE 9.2 mph - N/A   Unknown
6:00 PM 103 °F - 30 °F 4% 29.60 in - NNE 10.4 mph - -  
6:00 PM 102.2 °F - 30.2 °F 8% 29.62 in - NNE 10.4 mph - N/A   Unknown
7:00 PM 95.0 °F - 30.2 °F 10% 29.62 in - NE 11.5 mph - N/A   Unknown
8:00 PM 93 °F - 35 °F 6% 29.62 in - NE 12.7 mph - -  
8:00 PM 93.2 °F - 35.6 °F 13% 29.62 in - NE 12.7 mph - N/A   Unknown
9:00 PM 93 °F - 33 °F 6% 29.61 in - NE 15.0 mph - -  
9:00 PM 93.2 °F - 32.0 °F 11% 29.62 in - NE 15.0 mph - N/A   Unknown
10:00 PM 91.4 °F - 30.2 °F 11% 29.62 in - NE 16.1 mph - N/A   Unknown
11:00 PM 89 °F - 36 °F 8% 29.66 in - SW 18.4 mph - -  
11:00 PM 89.6 °F - 35.6 °F 15% 29.68 in - SW 18.4 mph - N/A   Unknown
11:03 PM 91.4 °F - 33.8 °F 13% 29.68 in - WSW 17.3 mph 31.1 mph N/A   Unknown
11:09 PM 80.6 °F 80.8 °F 57.2 °F 45% 29.71 in - SW 21.9 mph 39.1 mph N/A   Unknown
11:14 PM 77.0 °F - 60.8 °F 57% 29.71 in - SW 23.0 mph 34.5 mph N/A   Unknown